星链-32736 (STARLINK-32736)

导读

STARLINK-32736是美国SpaceX公司星链(Starlink)星座中的一颗低轨互联网卫星,于2024年12月29日发射入轨。星链项目旨在为全球提供高速低延迟宽带互联网服务,可覆盖偏远地区,支持流媒体、视频会议等应用。STARLINK-32736采用紧凑型平板设计,依托SpaceX可重复使用火箭实现低成本批量部署,是星链扩展全球网络覆盖的重要组成部分,推动全球卫星互联网建设不断完善。

Basic Information
目录编号:
62443
目录名称:
STARLINK-32736
国际标识:
2024-251M
轨道中心:
EARTH
卫星名称:
星链-32736
卫星全名:
星链-32736 (STARLINK-32736)
卫星状态:
在轨 (已飞行532 天)
发射日期:
2024-12-29 UTC
国别 :
美国 (US)
星等 :
--
Orbit Information
数据来源 国际轨道数据 AOE轨道数据
星历时间 2026-06-14T06:31:40+0800
13小时前
查看轨道信息
2026-06-13T07:00:00+0800
1天前
查看轨道信息
半长轴 6853.421km 6853.316km
偏心率 0.0001001 0.0000829
轨道倾角 53.159° 53.153°
近地点辐角 100.204° 46.030°
升交点赤经 248.305° 252.858°
平近点角 259.908° 310.867°
近地点 474.597km 474.61km
远地点 475.971km 475.748km
周期 94.107分钟 94.105分钟
每日圈数 15.301772 15.302121
Detailed Information
固有亮度:
5
最大亮度:
2.5
卫星平台:
Starlink V1.0
覆盖范围:
全球
运营商:
太空探索技术公司
运营商所在国:
美国
制造商(研发单位):
太空探索技术公司
制造商所在国:
美国
使用方式:
暂无
Satellite Introduction
Starlink 计划是 SpaceX 推出的全球卫星互联网项目,通过发射低轨道卫星,为全球尤其是偏远地区提供高速、低延迟的互联网服务。自 2019 年起,Starlink 已部署数千颗卫星,旨在缩小全球数字鸿沟,推动互联网普及。该项目还为军事、航空等行业提供通信支持,带来广泛经济效益。
2D Orbit Map
3D Orbit Map
Orbit Altitude Analysis Chart
Orbit Inclination Analysis Chart
Orbit Comprehensive Analysis Chart
View Comprehensive Chart